Regional Weather Roundup
Issued by NWS

Home | Current Version | Previous Version | Text Only | Print | Product List | Glossary Off
Versions: 1 2 3 4 5 6 7 8 9 10 11 12 13 14 15 16 17 18 19 20 21 22 23 24 25 26 27 28 29 30 31 32 33 34 35 36 37 38 39 40 41 42 43 44 45 46 47 48 49 50

000
ASUS45 KSLC 011010
RWRUT

UTAH REGIONAL WEATHER ROUNDUP
NATIONAL WEATHER SERVICE SALT LAKE CITY UT
400 AM MDT TUE SEP 01 2015

UTZ001>011-023>025-011100-

NORTHERN UTAH

CITY           SKY/WX    TMP DP  RH WIND       PRES   REMARKS
BRIGHAM CITY     N/A     61  39  45 CALM      29.97F
HILL AFB         N/A     67  37  33 E15       29.99S
LOGAN          CLEAR     50  42  74 N3        30.00S
OGDEN            N/A     66  38  35 S9        29.96F
PROVO AIRPORT    N/A     64  45  48 N3        30.02S
SALT LAKE CITY MOCLDY    74  46  36 SE13      29.95S
VERNAL         CLEAR     57  45  64 W5        30.12S
WENDOVER         N/A     68  32  26 CALM      29.95S
HEBER CITY       N/A     54  45  71 CALM      30.11S
WEST JORDAN    CLEAR     73  45  35 S13       29.99F

$$

UTZ012>022-026-027-011100-

SOUTHERN/CENTRAL UTAH

CITY           SKY/WX    TMP DP  RH WIND       PRES   REMARKS
BLANDING         N/A     58  49  70 CALM      30.26S
BRYCE CANYON     N/A     51  47  86 W5        30.30S
CEDAR CITY       N/A     63  44  50 VRB7      30.12F
DELTA            N/A     70  41  34 S12       30.02S
HANKSVILLE       N/A     61  48  63 CALM      30.07F
MILFORD          N/A     67  45  45 S13       30.05F
MOAB/CYNLANDS  CLEAR     66  49  54 CALM      30.05S
PRICE            N/A     60  46  59 CALM      30.15R
ST GEORGE      PTSUNNY   81  54  39 E10G16    29.96R
KANAB            N/A     64  57  77 NE6       30.18S

$$

REGIONAL REPORTS     COLORADO/ARIZONA

CITY           SKY/WX    TMP DP  RH WIND       PRES   REMARKS
CRAIG, CO      CLEAR     51  45  79 E6        30.21R
GRAND JUNCTION PTCLDY    62  51  67 SE5       30.10S
RIFLE          CLEAR     55  50  83 CALM      30.19R
MONTROSE       CLEAR     57  48  72 SE6       30.19S
CORTEZ         CLEAR     53  46  77 NE8       30.21S
PAGE, AZ         N/A     71  53  52 S9        30.08F
GRAND CANYON   MOCLDY    57  51  80 S3          N/A
KINGMAN          N/A     78  46  32 S10       29.99R
FLAGSTAFF        N/A     53  51  93 CALM      30.31S

$$

REGIONAL REPORTS    NEVADA/IDAHO/WYOMING

CITY           SKY/WX    TMP DP  RH WIND       PRES   REMARKS
LAS VEGAS, NV    N/A     85  39  19 SW5       29.81S
ELY              N/A     63  38  39 S12       30.12S
ELKO             N/A     51  26  37 CALM      30.02R
POCATELLO, ID  CLEAR     45  36  70 CALM      30.00S
BURLEY           N/A     50  43  77 CALM      29.97R
EVANSTON, WY   CLEAR     55  40  56 SE7       30.18S
ROCK SPRINGS   CLEAR     57  40  52 E3        30.16S
KEMMERER       CLEAR     43  30  61 N9        30.20S

$$



USA.gov is the U.S. government's official web portal to all federal, state and local government web resources and services.